Location: Aumont
(49.8843°N, 1.9274°E)
Time: 23:25:46
(UTC+00:00)

Daily predictions for brighter satellites

Satellite Brightness Start Highest point End
(mag) Time Altitude Azimuth Time Altitude Azimuth Time Altitude Azimuth
Aureole 3 4.1 20:39:15 10° S 20:43:51 64° E 20:49:37 10° NNE
Cosmos 1707 Rocket 3.6 20:39:42 10° S 20:44:08 89° ESE 20:48:34 10° N
Cosmos 1356 Rocket 3.7 20:40:02 10° SSW 20:44:14 75° WNW 20:48:26 10° N
Cosmos 1758 4.1 20:40:49 10° NNW 20:44:39 50° W 20:48:28 10° S
Cosmos 2219 Rocket 2.6 20:43:18 10° NNW 20:48:57 66° WSW 20:54:34 10° SSE
ATLAS CENTAUR R/B 3.7 20:49:33 10° W 20:52:37 26° NW 20:55:46 10° NNE
BREEZE-M DEB (TANK) 3.6 20:48:49 10° WSW 20:52:38 72° SSE 21:06:43 10° ENE
ATLAS 2AS CENTAUR R/B 3.8 20:48:00 10° NW 20:54:05 36° WSW 21:00:01 10° S
Landsat 4 3.8 20:52:25 10° SSE 20:55:44 50° ENE 20:59:04 10° N
Cosmos 1733 Rocket 3.8 20:52:39 10° NNW 20:56:59 55° W 21:01:18 10° S
NOSS 5 (C) 4.4 20:55:45 10° NW 20:58:54 68° SW 21:02:07 10° SSE
Cosmos 1455 2.2 20:55:52 10° N 20:59:21 55° ENE 21:02:48 10° SSE
Spot 2 Rocket 3.5 20:57:30 10° SSE 21:02:35 83° ENE 21:07:42 10° NNW
Cosmos 1408 4.3 21:01:51 10° ESE 21:03:19 13° E 21:04:48 10° ENE
Cosmos 1655 Rocket 4.5 20:57:57 10° SSW 21:04:19 68° WNW 21:10:42 10° N
SPOT 3 Rocket 3.6 20:59:25 10° SSE 21:04:34 76° ENE 21:09:46 10° NNW
Resurs 01 Rocket 4.3 21:06:37 10° WSW 21:08:50 14° W 21:11:04 10° WNW
Iridium 51 4.4 21:06:26 10° S 21:10:38 71° E 21:14:37 10° N
Meteor 2-20 Rocket 4.5 21:04:34 10° N 21:10:46 88° W 21:16:41 10° S
SeaSat 1 2.5 21:08:36 10° SE 21:13:31 83° NE 21:18:28 10° NNW
Cosmos 2360 Rocket 4.2 21:13:59 10° NW 21:18:17 22° WSW 21:22:32 10° SSW
Cosmos 158 Rocket 4.0 21:13:18 10° NNW 21:18:37 83° ENE 21:23:25 12° SSE
Cosmos 1953 2.3 21:14:58 10° NNW 21:18:48 80° W 21:22:35 10° S
Cosmos 1908 Rocket 3.5 21:14:41 10° N 21:19:03 86° E 21:23:21 10° S
COSMOS 2428 2.8 21:13:50 10° NNW 21:19:33 78° WSW 21:25:01 11° SSE
Cosmos 2208 Rocket 4.0 21:15:01 10° NNW 21:20:14 88° ENE 21:25:05 12° SSE
Cosmos 1782 Rocket 3.9 21:18:43 10° N 21:22:58 51° ENE 21:26:41 13° SSE
CENTAUR R/B 3.8 21:23:46 12° SE 21:27:05 19° ESE 21:31:26 10° ENE
Ariane Rocket 3.3 21:22:57 10° S 21:28:00 66° WSW 21:33:06 10° NNW
Cosmos 1300 Rocket 4.0 21:24:06 10° N 21:28:19 49° ENE 21:31:51 14° SSE
EXPRESS MD2 1.9 21:26:37 10° W 21:29:14 71° SSW 21:30:59 14° ESE
Cosmos 2084 Rocket 3.9 21:27:56 10° SSW 21:31:54 37° SE 21:35:45 10° ENE
Cosmos 1486 Rocket 4.1 21:32:37 10° S 21:37:40 55° ESE 21:42:46 10° NNE
Cosmos 1315 Rocket 3.7 21:35:13 10° SSW 21:39:05 50° WNW 21:43:00 10° N
Cosmos 405 Rocket 4.2 21:38:06 10° NNE 21:41:16 25° ENE 21:43:50 13° ESE
GP-B 3.3 21:39:19 10° N 21:43:40 56° E 21:47:06 16° SSE
BREEZE-M DEB (TANK) 2.9 21:38:56 10° W 21:44:28 53° N 21:46:46 10° ENE
MetOp-A 4.1 21:40:03 14° SSE 21:44:41 87° ENE 21:49:50 10° NNW
ARIANE 5 R/B 3.6 21:41:49 14° SE 21:45:08 35° ENE 21:49:08 10° N
NOSS 0 Rocket 4.1 21:39:37 10° NNW 21:45:52 73° WSW 21:51:08 15° SSE
SJ 16-02 3.6 21:42:34 10° WSW 21:46:15 27° NW 21:49:59 10° N
BlueWalker 3 2.4 21:44:03 10° W 21:47:45 61° NNW 21:51:29 10° ENE
Cosmos 371 Rocket 3.4 21:44:14 10° S 21:48:57 60° ESE 21:53:43 10° NNE
SL-4 R/B 3.3 21:45:59 10° W 21:49:14 25° SW 21:51:27 16° S
USA 234 3.4 21:44:04 10° ENE 21:50:23 49° SE 21:56:41 10° SSW
Terra 3.3 21:49:07 10° SSW 21:53:17 31° W 21:57:29 10° NNW
Spot 1 4.3 21:50:38 10° NNE 21:55:22 88° E 22:00:20 10° SSW
Okean 1-7 4.3 21:53:16 10° SW 21:57:19 39° WNW 22:01:23 10° N
SL-16 R/B 3.3 21:53:38 10° NNW 21:58:54 36° NE 22:04:08 10° ESE
H-2A R/B 3.9 21:56:27 13° ESE 21:59:30 27° ENE 22:03:02 10° N
Cosmos 2237 Rocket 2.2 21:54:58 10° NNW 22:00:41 88° WSW 22:05:00 18° SSE
Landsat 5 3.5 21:56:44 10° NNE 22:00:52 82° WNW 22:05:08 10° SSW
Cosmos 1703 Rocket 4.3 21:58:22 10° SSW 22:02:43 53° WNW 22:07:04 10° N
COSMOS 2455 2.9 21:58:04 10° SW 22:04:05 88° WNW 22:10:11 10° NE
Cosmos 1242 Rocket 4.0 22:02:40 10° SW 22:04:58 25° WNW 22:07:19 10° NNW
Cosmos 1745 Rocket 4.1 21:58:44 10° S 22:05:04 88° E 22:11:29 10° N
USA 281 3.6 22:00:04 13° SE 22:05:47 58° NE 22:12:14 10° NNW
CZ-4C R/B 1.9 22:01:40 10° SW 22:06:14 89° SE 22:12:05 10° NE
Cosmos 2227 Rocket 2.9 22:03:20 17° SSE 22:07:03 36° ESE 22:12:11 10° NE
Nadezhda 1 Rocket 4.2 22:01:30 10° NNW 22:07:44 70° W 22:13:02 14° S
Meteor 2-5 Rocket 4.1 22:05:17 17° SSE 22:09:39 52° E 22:15:13 10° NNE
Cosmos 2151 Rocket 4.5 22:07:19 10° N 22:11:25 36° ENE 22:14:08 18° SE
Cosmos 773 Rocket 4.2 22:09:15 10° NNW 22:14:21 65° WSW 22:18:03 19° S
Cosmos 1980 3.9 22:09:32 10° NNW 22:15:10 67° WSW 22:19:14 19° SSE
Okean 2 Rocket 4.0 22:11:55 10° N 22:16:08 38° ENE 22:18:55 19° SE
Cosmos 304 Rocket 3.7 22:13:22 10° SSW 22:18:07 89° ESE 22:22:55 10° NNE
Cosmos 2297 Rocket 2.2 22:20:15 10° SSW 22:25:54 87° ESE 22:31:36 10° NNE
ALOS 2 3.7 22:25:43 17° ESE 22:28:33 34° ENE 22:32:33 10° N
MINOTAUR 4 R/B 4.0 22:27:57 10° NNE 22:30:43 41° E 22:31:27 34° SE
CZ-2C R/B 3.6 22:29:39 10° NNE 22:34:06 80° ESE 22:37:07 21° S
Cosmos 2098 Rocket 3.9 22:28:11 10° N 22:34:46 86° E 22:38:52 21° S
Cosmos 1461 4.4 22:34:55 17° ESE 22:35:03 17° ESE 22:37:41 10° ENE
Cosmos 1703 3.1 22:33:06 21° SSW 22:35:24 75° W 22:39:05 10° N
Cosmos 1408 3.5 22:33:30 14° SW 22:35:42 33° WNW 22:38:28 10° N
NOSS 3-2 (A) 3.9 22:33:40 22° SSE 22:36:08 33° ESE 22:41:26 10° NE
Cosmos 2181 Rocket 4.0 22:31:28 10° N 22:37:38 72° ENE 22:41:46 22° SSE
Cosmos 2219 3.9 22:37:53 22° SSE 22:40:46 37° ESE 22:45:52 10° NE
H-2A R/B 4.2 22:42:08 10° ENE 22:43:49 12° E 22:45:13 11° ESE
Cosmos 1777 Rocket 4.1 22:39:06 12° SSW 22:43:59 82° WNW 22:49:18 10° NNE
Cosmos 332 Rocket 3.8 22:41:57 20° SSW 22:45:19 73° ESE 22:50:13 10° NNE
BREEZE-M DEB (TANK) 3.7 22:42:40 10° W 22:45:52 83° S 22:55:52 10° ESE
Cosmos 1825 2.5 22:44:58 30° SE 22:46:03 41° E 22:49:19 10° NNE
Cosmos 2263 Rocket 3.2 22:44:09 21° SE 22:46:34 29° ESE 22:51:19 10° NE
Meteor 1-24 Rocket 3.7 22:42:45 18° SSW 22:47:09 84° WNW 22:52:41 10° N
Cosmos 2221 Rocket 3.9 22:46:45 26° SSE 22:48:56 52° E 22:53:15 10° NNE
SeaSat 1 4.4 22:48:17 10° SW 22:51:31 17° WSW 22:54:45 10° WNW
Sich 1 Rocket 3.5 22:49:23 10° N 22:53:47 84° E 22:56:04 28° SSE
Okean 1 Rocket 3.3 22:50:54 10° N 22:55:15 58° ENE 22:57:31 26° SSE
Cosmos 1538 Rocket 4.0 22:50:21 10° NNW 22:55:36 78° ENE 22:58:51 24° SSE
PSLV R/B 3.8 22:52:29 10° NNE 22:56:29 83° WNW 22:58:45 25° SSW
Cosmos 1263 4.2 22:54:45 10° N 22:57:54 64° E 22:58:45 40° SE
Cosmos 1818 3.8 22:54:58 10° NW 23:00:29 72° NE 23:04:38 18° SE
Cosmos 1892 2.4 23:03:07 35° S 23:04:28 80° E 23:08:01 10° NNE
Spot 4 3.8 23:03:31 27° S 23:06:11 80° WSW 23:11:03 10° NNW
Nadezhda 3 Rocket 4.2 23:07:30 10° N 23:13:44 65° ENE 23:17:41 23° SSE
Cosmos 1025 Rocket 3.6 23:12:05 28° SSE 23:13:53 44° E 23:17:58 10° NNE
Cosmos 405 Rocket 4.0 23:13:04 10° NNW 23:16:23 29° W 23:18:05 20° SW
CENTAUR R/B 2.5 23:10:49 11° SW 23:16:25 86° SE 23:23:40 10° NE
Cosmos 1975 Rocket 4.5 23:15:39 20° SE 23:17:31 26° E 23:21:13 10° NNE
ARIANE 5 R/B 4.0 23:19:17 18° SW 23:21:34 29° W 23:25:24 10° NW
Cosmos 923 Rocket 4.3 23:17:22 10° NNW 23:22:36 61° ENE 23:26:02 21° SE
Cosmos 1455 Rocket 3.6 23:20:05 10° N 23:24:26 51° ENE 23:26:44 25° SE
BlueWalker 3 2.7 23:22:35 10° WNW 23:26:16 51° N 23:29:56 10° E
Cosmos 1328 3.7 23:25:24 35° S 23:26:57 79° E 23:30:50 10° NNE
Cosmos 1898 Rocket 3.9 23:25:20 28° SSE 23:27:45 48° ESE 23:32:43 10° NNE
Cosmos 1378 Rocket 4.2 23:25:05 21° SW 23:27:45 50° WNW 23:32:05 10° N
Aureole 1 Rocket 3.2 23:26:55 33° S 23:28:38 62° ESE 23:33:42 10° NNE
Cosmos 2184 Rocket 4.0 23:26:26 24° S 23:30:34 90° W 23:37:01 10° N
Meteor 1-21 Rocket 4.5 23:27:44 26° SSE 23:30:51 58° E 23:36:22 10° NNE
Cosmos 1674 Rocket 4.0 23:29:17 23° SW 23:31:45 54° WNW 23:36:00 10° N
USA 234 3.5 23:27:06 10° ENE 23:33:38 72° NNW 23:40:08 10° WSW
H-2A R/B 3.5 23:32:26 24° SW 23:34:18 36° W 23:38:11 10° NNW
SL-16 R/B 2.6 23:37:43 10° NW 23:43:11 48° WSW 23:46:02 26° S
Cosmos 2237 Rocket 4.2 23:40:36 10° WNW 23:43:54 16° W 23:46:48 11° SW
Cosmos 1603 4.5 23:43:09 10° NNW 23:48:45 49° NE 23:54:09 11° SE
Cosmos 990 Rocket 4.4 23:45:21 18° SW 23:49:07 58° WNW 23:54:13 10° NNE
Cosmos 2154 Rocket 4.0 23:45:18 24° SSW 23:49:17 81° W 23:55:39 10° N
Cosmos 1943 3.3 23:44:10 10° NNW 23:49:48 72° ENE 23:53:53 19° SE
USA 281 4.1 23:46:56 21° SSW 23:50:34 36° WSW 23:56:34 10° NW
Cosmos 2227 Rocket 3.1 23:45:34 10° SW 23:50:59 46° NW 23:56:27 10° NNE
PSLV R/B 3.4 23:48:50 10° NNE 23:53:03 90° SE 23:54:55 32° SSW
Cosmos 2082 3.6 23:50:39 24° SSW 23:54:09 85° ESE 23:59:48 10° NNE
